Regional Weather Roundup
Issued by NWS

Home | Current Version | Previous Version | Text Only | Print | Product List | Glossary Off
Versions: 1 2 3 4 5 6 7 8 9 10 11 12 13 14 15 16 17 18 19 20 21 22 23 24 25 26 27 28 29 30 31 32 33 34 35 36 37 38 39 40 41 42 43 44 45 46 47 48 49 50

197
ASUS43 KOAX 052110
RWRNE

WEATHER ROUNDUP FOR NEBRASKA
NATIONAL WEATHER SERVICE OMAHA NE
300 PM CST FRI FEB 05 2016

NOTES: SATELLITE DATA IS BEING USED TO AUGMENT CLOUD COVER ABOVE
       12000 FEET.
       "FAIR" INDICATES FEW OR NO CLOUDS BELOW 12,000 FEET WITH NO
       SIGNIFICANT WEATHER AND/OR OBSTRUCTIONS TO VISIBILITY.

  * THESE STATIONS DO NOT REPORT WEATHER SUCH AS RAIN...SNOW OR FOG.

NEZ001>004-019>022-054>056-052200-
NEBRASKA PANHANDLE

CITY           SKY/WX    TMP DP  RH WIND       PRES   REMARKS
SCOTTSBLUFF    SUNNY     34  19  54 W17       30.26S WCI  23
ALLIANCE       SUNNY     33  24  69 NW18      30.21S WCI  22
CHADRON        SUNNY     37  25  61 W20G28    30.23F WCI  27
KIMBALL        SUNNY     31  19  62 NW20G29   30.24F WCI  18
SIDNEY         SUNNY     31  22  69 NW20      30.24F WCI  19
$$

NEZ057>060-069>072-079>082-052200-
SOUTHWEST NEBRASKA

CITY           SKY/WX    TMP DP  RH WIND       PRES   REMARKS
NORTH PLATTE   CLOUDY    37  26  64 NW12      30.21S WCI  29
IMPERIAL       SUNNY     35  23  61 NW12      30.23F WCI  27
LEXINGTON      MOSUNNY   36  27  70 W10       30.20F WCI  29
MCCOOK         MOSUNNY   37  26  64 NW13      30.23F WCI  29
OGALLALA       SUNNY     35  22  60 NW14      30.23R WCI  25
$$

NEZ005>010-023>029-035>040-094-052200-
NORTH CENTRAL NEBRASKA

CITY           SKY/WX    TMP DP  RH WIND       PRES   REMARKS
VALENTINE      CLOUDY    33  24  69 NW16G26   30.20R WCI  23
AINSWORTH      CLOUDY    34  28  76 NW17G25   30.18S WCI  24
BROKEN BOW     PTSUNNY   37  26  64 NW24G32   30.17F WCI  26
O`NEILL        CLOUDY    37  30  77 NW17      30.16S WCI  27
ORD            CLOUDY    39  27  62 NW12      30.16F WCI  32
THEDFORD       CLOUDY    36  26  68 NW21G26   30.19S WCI  25
$$

NEZ041-046>049-061>064-073>077-083>087-052200-
SOUTH CENTRAL NEBRASKA

CITY           SKY/WX    TMP DP  RH WIND       PRES   REMARKS
GRAND ISLAND   CLOUDY    36  30  79 W8        30.19F WCI  30
AURORA         CLOUDY    35  32  88 SW9       30.19F WCI  27
HASTINGS       CLOUDY    37  30  75 W8        30.19F WCI  31
HEBRON         CLOUDY    33  27  80 SW8G16    30.25S WCI  26
HOLDREGE       SUNNY     36  27  68 W7        30.20S WCI  30
KEARNEY *      MOSUNNY   41  -9  11 NW13      30.20S
YORK           MOSUNNY   34  32  93 W14       30.20S WCI  24
$$

NEZ011>018-030>034-042>045-052200-
NORTHEAST NEBRASKA

CITY           SKY/WX    TMP DP  RH WIND       PRES   REMARKS
NORFOLK        CLOUDY    34  29  82 SW10      30.15F WCI  26
ALBION         CLOUDY    38  29  69 NW10      30.16F WCI  31
BLAIR          LGT SNOW  30  28  91 S12       30.22F WCI  20
COLUMBUS *     PTSUNNY   36  25  64 SW7       30.19F WCI  30
FREMONT        CLOUDY    30  26  85 S12       30.21F WCI  20
TEKAMAH        CLOUDY    30  26  85 S16       30.22F FOG     WCI  19
WAYNE          CLOUDY    32  28  85 S9        30.17S WCI  24
$$

NEZ050>053-065>068-078-088>093-052200-
SOUTHEAST NEBRASKA

CITY           SKY/WX    TMP DP  RH WIND       PRES   REMARKS
LINCOLN        CLOUDY    32  29  88 S7        30.25S WCI  26
OMAHA EPPLEY   LGT SNOW  30  27  88 S13       30.25F FOG     WCI  20
BEATRICE       CLOUDY    35  28  75 SW8       30.24S WCI  28
FALLS CITY     CLOUDY    36  23  59 S9        30.27F WCI  29
NEBRASKA CITY  LGT SNOW  31  31 100 S9        30.26S WCI  23
PLATTSMOUTH    LGT SNOW  30  27  91 S7        30.25R WCI  23
$$

NEZ044-045-051>053-067-052200-
OMAHA AREA

CITY           SKY/WX    TMP DP  RH WIND       PRES   REMARKS
OMAHA EPPLEY   LGT SNOW  30  27  88 S13       30.25F FOG     WCI  20
BLAIR          LGT SNOW  30  28  91 S12       30.22F WCI  20
FREMONT        CLOUDY    30  26  85 S12       30.21F WCI  20
MILLARD        LGT RAIN  31  28  87 S5        30.25F WCI  26
OFFUTT AFB     LGT SNOW  30  28  93 S10       30.25F FOG     WCI  21
PLATTSMOUTH    LGT SNOW  30  27  91 S7        30.25R WCI  23
WAHOO          FLURRIES  31  28  88 S9        30.22F WCI  23
$$




USA.gov is the U.S. government's official web portal to all federal, state and local government web resources and services.